Wind_Speed
13 13 13 12 12 11 11 10 10 10 9 9 9 9 9 9 10 9 10 10 11 11 11 10 10 9 10 11 12 13 14 14 15 13 17 16 10 11 12 9 10 12 11 13 13 13 13 14 14 14 10 6 5 1 2 3 1 1 1 2 1 1 2 4 5 3 5 11 12 12 11 10 11 9 6 7 8 10 10 11 14 15 16 18 22 27 28 26
14 13 13 12 12 11 11 10 10 10 9 9 10 10 10 10 10 10 10 10 11 11 11 11 9 9 10 11 11 11 14 15 17 18 23 22 13 11 13 13 13 11 14 16 15 15 13 11 11 10 8 4 2 1 1 2 2 0 1 2 2 1 1 3 5 4 5 12 13 11 11 11 12 10 8 8 10 11 11 13 17 19 19 21 24 26 26 25
16 14 13 12 12 11 11 11 10 10 10 10 10 10 10 11 11 11 11 10 11 11 11 10 9 9 10 10 10 9 13 16 15 14 15 16 18 17 14 15 15 13 17 17 15 15 13 11 11 9 8 3 1 2 2 1 4 2 2 2 2 1 2 4 6 6 8 13 13 11 11 11 12 10 7 9 12 12 12 14 17 20 21 21 21 23 25 24
17 16 15 13 12 11 11 11 11 10 10 10 9 9 10 11 12 12 12 11 11 10 10 9 9 9 9 9 8 8 11 14 6 1 2 4 14 18 16 15 14 15 18 17 14 14 14 13 11 9 7 1 2 3 1 3 4 1 3 3 1 2 3 4 5 6 10 13 13 11 11 12 11 10 8 11 13 10 12 15 17 21 22 22 20 21 23 22
18 17 16 14 13 12 11 11 11 10 10 11 11 10 11 11 11 12 13 13 12 11 10 9 9 8 9 8 6 8 10 6 3 8 5 3 7 11 14 16 14 15 17 17 16 14 14 13 12 9 6 3 3 3 1 4 3 2 3 3 3 3 2 3 6 8 12 13 12 12 12 11 10 9 10 11 10 8 12 16 19 21 22 22 21 20 20 19
18 17 16 15 13 12 11 11 11 11 11 11 12 13 12 11 11 12 13 13 12 11 9 8 8 7 8 6 5 7 7 3 4 5 3 1 3 5 10 14 14 14 15 16 16 14 12 12 11 8 7 4 2 3 2 3 3 2 1 4 5 2 2 4 5 5 9 11 11 11 8 9 10 9 9 9 9 11 14 18 20 20 21 22 21 19 18 17
19 18 17 16 13 12 11 11 11 11 12 13 14 14 14 13 11 11 12 13 12 11 10 8 7 7 7 6 5 6 8 9 3 5 5 4 4 5 9 13 14 14 15 16 15 13 11 11 11 8 7 3 1 4 5 4 4 4 2 4 3 4 1 4 4 5 5 3 6 9 9 9 11 11 9 8 10 15 16 18 20 19 21 21 19 19 17 17
19 18 17 16 14 13 12 11 11 11 13 14 15 15 15 14 12 11 12 11 10 10 9 8 7 5 6 6 7 7 9 6 4 4 6 5 1 4 11 12 13 14 15 16 15 12 10 11 11 8 7 4 4 6 7 7 2 5 4 3 4 7 4 7 7 5 6 5 4 2 11 11 10 11 10 10 13 17 18 19 20 19 20 19 18 18 17 16
20 19 17 16 15 14 13 12 11 11 12 14 15 16 15 13 12 11 10 10 9 8 8 8 6 3 4 6 8 7 4 2 7 2 5 3 3 8 12 11 14 15 14 16 16 13 10 8 10 9 6 6 7 6 7 8 5 8 5 1 4 9 8 7 6 3 4 4 3 2 9 11 10 11 9 10 14 18 19 19 20 19 19 18 17 17 16 15
20 19 18 17 16 14 14 13 12 12 13 13 14 15 16 13 11 10 9 8 7 7 7 7 5 2 4 7 9 5 1 4 4 4 3 7 9 10 13 12 14 15 14 14 15 14 11 9 9 7 6 7 5 5 9 7 7 5 2 5 8 9 7 8 8 3 2 5 2 4 9 9 9 9 7 11 15 18 19 20 19 18 18 17 17 16 14 15
21 20 19 18 17 15 15 14 14 14 14 14 14 14 15 12 9 8 7 6 6 6 6 7 4 2 7 8 8 5 2 4 1 5 5 9 10 11 13 12 13 15 14 12 13 14 13 12 9 6 3 3 4 7 8 5 16 11 7 9 11 7 5 8 8 3 1 3 1 2 9 8 6 7 8 13 16 17 19 19 19 18 17 17 17 15 12 13
21 20 20 18 18 17 16 15 15 15 15 15 15 13 12 10 8 7 6 5 5 6 5 6 3 2 8 9 10 8 4 5 2 3 6 8 9 10 12 12 13 14 14 11 11 13 14 13 11 9 4 3 5 7 2 16 18 10 7 7 8 6 4 4 3 2 1 3 3 2 7 5 4 8 12 15 15 17 19 18 18 17 15 16 15 13 11 13
21 20 20 19 18 17 16 16 16 16 16 16 14 12 10 7 7 5 5 4 4 5 5 4 3 3 8 7 6 6 5 4 2 3 6 8 9 10 11 12 12 13 14 13 11 11 13 13 11 10 8 6 7 7 5 16 15 9 7 4 3 3 2 2 0 3 4 2 3 2 4 5 6 10 13 14 16 17 18 17 17 16 14 14 13 12 12 13
21 20 20 19 18 17 17 16 16 16 16 15 12 10 7 6 5 4 4 4 4 4 5 4 3 4 7 8 5 1 5 5 3 6 8 9 10 10 11 11 11 12 13 14 11 9 11 11 9 9 9 10 7 10 5 9 12 9 7 3 1 1 1 1 2 4 4 1 3 3 2 6 8 12 12 13 16 17 17 17 16 15 14 13 13 12 12 13
21 20 19 19 18 17 17 16 16 16 17 15 11 8 6 5 5 4 5 4 4 3 3 5 6 5 7 9 5 0 5 7 7 9 9 9 10 8 10 11 11 12 11 11 10 9 9 7 7 8 8 8 6 7 9 4 8 7 6 3 1 0 1 2 3 4 2 3 4 3 3 7 8 11 11 11 15 16 16 16 16 16 15 14 12 12 12 12
21 20 19 18 18 17 16 16 16 16 17 13 8 6 6 6 5 5 6 4 4 3 2 5 9 11 6 4 1 1 6 9 9 9 8 9 9 8 9 9 9 10 9 9 8 7 6 5 6 8 8 7 7 7 8 4 5 2 2 3 2 1 1 2 3 3 4 5 6 3 3 7 8 11 11 12 16 16 15 16 17 16 15 14 12 12 12 11
21 20 19 18 17 16 16 15 15 16 15 11 6 5 6 6 6 6 6 4 3 3 6 9 9 10 7 5 3 6 9 9 9 9 8 9 9 8 9 8 8 9 7 7 8 7 5 6 6 6 8 8 7 7 8 4 3 1 1 4 3 4 4 3 4 3 5 5 5 4 2 6 9 13 13 12 14 15 14 15 16 15 14 13 12 12 12 11
22 20 19 18 17 16 16 15 15 15 13 9 4 5 7 7 6 6 5 3 2 6 10 12 11 6 6 7 6 7 9 7 9 9 8 8 7 6 9 9 8 8 7 7 8 8 7 7 6 6 7 7 6 7 7 3 6 5 3 4 5 6 6 5 4 5 7 5 4 5 3 6 11 14 12 12 13 14 14 14 14 14 14 13 12 12 12 12
22 20 19 17 16 15 15 14 14 15 13 7 4 7 8 6 6 7 7 6 4 6 5 5 9 4 0 4 2 3 6 6 7 8 8 7 6 7 9 9 7 8 8 6 8 9 7 6 7 7 7 8 9 8 8 5 10 9 5 4 6 6 4 6 5 7 9 6 5 7 5 7 12 14 14 12 12 13 14 13 12 12 13 13 12 12 12 13
22 20 18 17 15 14 14 14 13 14 12 6 5 8 7 4 3 4 8 10 8 9 6 4 11 7 3 4 3 4 5 6 7 8 8 7 7 8 10 9 8 9 8 7 8 9 7 7 7 8 8 10 10 9 11 8 6 8 6 5 6 5 5 5 6 9 9 6 7 9 7 8 9 9 12 13 12 13 14 14 12 11 12 12 12 13 13 12
22 20 18 16 15 14 13 14 12 13 12 7 5 7 7 6 4 1 2 9 13 13 10 6 8 8 6 1 4 3 4 7 9 8 8 8 8 8 8 9 8 7 8 11 8 7 8 8 9 11 11 13 10 8 10 10 6 8 7 5 5 5 5 4 6 10 8 5 5 7 7 10 9 4 3 7 9 9 12 15 15 14 11 11 12 14 13 12
21 19 18 16 15 13 12 13 13 13 12 9 7 9 10 9 8 7 7 7 10 10 8 7 8 7 5 5 2 5 7 8 9 9 9 9 10 8 7 8 9 8 9 11 8 6 7 8 11 12 13 13 7 6 10 12 12 6 6 5 5 6 7 4 4 7 6 2 1 5 7 7 6 3 2 1 2 2 4 5 10 14 11 10 12 13 13 13
21 19 17 15 14 13 12 13 13 13 12 11 10 11 13 9 8 9 9 8 5 6 6 7 7 7 8 9 6 7 10 8 8 10 10 9 10 8 7 8 9 9 9 11 9 7 6 8 13 13 14 12 6 7 10 8 11 5 6 4 4 9 8 4 4 5 3 1 3 4 4 3 3 2 1 1 3 2 7 7 4 10 12 10 12 12 13 14
20 19 16 15 14 12 13 14 13 15 14 15 16 14 13 9 10 11 8 9 4 4 4 5 7 8 8 7 6 11 12 7 7 9 11 10 9 7 8 8 9 10 9 11 12 11 8 7 10 13 16 12 7 9 10 5 6 5 7 7 7 12 8 6 8 7 1 0 5 5 2 2 1 2 2 2 4 2 4 5 8 9 12 9 10 12 13 14
19 18 16 14 14 12 13 13 13 15 15 17 19 17 13 8 9 10 8 8 3 4 4 5 5 4 5 4 5 9 11 7 7 8 12 11 11 7 6 6 7 9 10 12 12 10 10 9 9 13 15 11 8 10 11 7 5 6 8 5 10 14 11 11 11 8 2 1 3 5 2 2 3 4 4 4 5 3 2 1 8 10 12 10 10 12 12 13
19 17 15 14 13 11 10 8 9 13 13 12 9 8 7 5 7 8 7 6 2 4 5 7 4 1 3 5 7 7 11 7 6 8 10 12 12 8 6 5 5 8 10 10 8 6 8 12 9 7 10 11 12 9 9 9 6 5 2 8 14 15 14 14 12 7 3 1 3 4 1 1 2 4 5 4 6 6 4 4 8 9 11 12 10 11 12 13
18 16 14 13 12 9 6 7 13 16 10 3 5 6 5 5 6 8 7 5 2 4 6 6 4 2 3 6 10 8 3 2 5 8 8 11 11 8 8 7 6 8 9 6 6 4 8 14 9 8 9 8 9 8 8 13 9 5 2 11 13 15 15 14 12 6 3 3 3 5 2 1 2 5 5 5 6 7 6 6 8 11 13 14 11 11 13 13
17 15 13 11 11 10 9 13 16 14 12 10 9 9 8 6 7 7 6 2 3 2 3 4 4 1 3 7 12 8 5 4 4 6 7 12 11 9 8 9 8 9 9 6 5 5 9 14 9 10 9 4 5 7 9 13 9 4 4 4 6 14 17 12 10 6 4 3 2 4 4 0 1 4 4 6 6 7 8 9 12 15 16 15 14 14 15 14
17 14 12 11 11 12 13 15 13 12 13 13 11 10 10 8 7 5 5 3 1 1 1 3 3 6 7 8 11 8 3 6 6 5 7 11 11 10 8 8 9 9 12 10 7 5 6 9 5 6 7 5 7 7 8 12 9 5 7 5 3 9 15 11 8 6 5 3 3 7 9 3 1 4 6 6 7 9 9 10 13 16 16 15 15 15 15 14
17 13 11 11 9 9 11 13 14 13 11 10 11 12 11 8 6 5 5 1 2 3 3 3 3 7 8 8 9 7 7 8 3 5 8 6 10 11 8 8 8 10 11 10 10 7 4 4 4 1 5 5 8 9 10 13 9 4 5 5 6 6 11 8 4 5 4 3 6 10 14 8 2 5 9 8 9 12 11 9 12 14 15 15 15 15 15 14
16 13 11 11 9 7 8 9 9 9 8 10 13 11 9 5 4 6 3 2 1 3 5 6 4 6 10 10 8 7 9 7 4 6 7 4 8 9 7 8 7 8 7 6 9 10 6 2 2 1 6 6 8 9 9 11 11 7 5 4 5 5 7 6 2 2 3 4 6 10 13 11 6 4 10 12 11 14 15 13 15 17 17 16 15 15 14 13
15 12 12 12 12 13 13 11 12 12 8 11 12 9 6 2 4 5 1 1 2 0 3 6 5 6 10 9 6 6 8 7 6 8 7 6 7 7 8 8 5 6 6 6 7 8 10 10 6 5 8 8 9 6 5 10 12 8 6 6 6 5 5 4 2 2 5 4 7 12 13 9 5 2 9 14 13 14 16 13 15 18 18 15 14 15 14 12
15 12 12 13 14 17 18 17 15 13 11 12 10 6 4 4 4 4 1 0 1 2 1 4 5 6 9 7 5 5 4 4 6 8 8 8 7 8 10 9 7 8 5 5 7 6 9 9 8 7 8 10 10 6 5 7 7 6 5 6 7 5 4 5 4 4 5 3 7 13 12 5 2 1 5 13 14 14 16 14 13 16 17 15 14 14 14 14
13 12 12 12 15 19 19 18 14 13 12 11 8 5 6 7 2 4 4 4 4 1 1 0 2 3 4 4 5 6 4 3 5 7 7 7 6 7 9 9 10 8 6 5 5 7 9 8 9 11 8 11 13 10 8 6 5 8 9 8 8 7 5 5 4 3 3 1 3 7 6 2 1 2 2 7 12 11 13 14 14 13 14 13 12 13 15 15
12 11 11 13 16 18 18 17 15 13 11 8 6 5 6 6 3 5 5 5 2 2 4 1 3 4 4 2 4 5 3 2 6 8 6 5 6 6 5 7 10 8 9 5 3 6 10 8 10 15 11 12 14 13 11 10 6 5 8 9 8 8 6 4 3 3 3 2 2 3 1 2 2 3 3 3 7 9 11 13 15 14 12 11 10 10 12 13
9 7 9 13 17 18 15 12 12 11 9 7 6 5 5 4 3 6 5 5 9 4 5 2 4 6 5 5 3 3 4 4 5 7 4 6 7 4 3 4 6 6 9 5 4 4 6 6 7 13 10 11 13 12 12 11 7 3 6 8 8 9 8 5 4 5 6 5 3 4 3 2 2 2 1 3 5 10 12 12 15 13 11 11 9 9 10 10
7 7 8 14 17 15 10 8 8 8 8 6 5 7 7 3 3 5 4 4 6 4 1 2 1 3 5 2 1 4 8 5 4 4 4 7 5 3 5 4 1 5 7 4 4 4 3 4 6 11 8 9 9 8 11 12 10 7 4 4 6 8 9 6 4 4 6 6 2 4 6 6 5 2 3 6 7 11 13 13 15 13 12 13 11 9 9 8
10 9 11 14 12 8 6 7 8 7 6 6 6 9 9 3 4 5 5 5 6 3 3 4 1 2 5 1 1 5 8 5 5 5 4 5 1 3 4 5 4 5 9 6 3 3 4 5 4 8 8 7 9 6 9 11 14 14 8 5 3 6 7 6 4 4 5 5 3 3 6 6 4 4 7 9 9 11 12 13 15 15 14 12 10 10 8 3
11 9 10 11 9 6 6 7 7 7 6 7 6 6 5 1 3 3 4 5 6 4 4 4 1 2 3 2 2 4 4 1 3 4 2 2 4 3 8 2 6 5 6 6 7 5 5 7 3 3 6 6 8 7 8 8 12 14 11 8 6 5 5 5 6 5 6 5 3 4 4 3 1 4 9 10 9 10 11 12 13 15 15 10 7 9 7 2
8 7 5 10 11 7 7 7 7 7 6 6 7 5 3 3 2 2 4 6 4 3 4 7 3 1 1 2 4 3 4 0 4 2 3 4 6 4 7 4 4 4 1 6 8 7 6 6 3 2 5 7 6 6 8 8 9 9 9 8 6 5 4 4 5 6 5 5 4 4 2 2 1 2 7 10 9 10 13 13 12 13 15 13 8 7 7 6
8 7 3 10 11 8 7 7 7 6 6 6 7 5 2 6 5 2 1 5 4 1 2 7 6 2 3 3 3 2 3 3 5 0 2 4 3 1 2 5 6 4 3 4 8 6 5 3 3 3 4 6 6 8 9 10 9 9 8 8 7 5 3 3 5 5 4 5 5 5 2 3 1 1 5 9 8 9 12 13 13 14 16 15 12 9 7 8
7 6 3 9 9 8 7 7 4 6 7 3 4 2 3 4 7 5 3 4 3 2 2 3 4 4 6 1 1 4 0 2 1 2 3 3 2 5 4 4 8 7 5 5 4 4 5 4 6 7 5 5 6 7 11 11 12 9 9 9 8 6 6 5 5 4 4 5 6 6 3 4 3 3 6 9 8 9 10 9 10 12 14 14 14 11 6 4
6 4 3 8 9 8 8 7 4 7 5 1 3 2 2 3 5 3 5 2 3 3 2 3 2 3 6 3 2 4 1 3 2 2 4 5 5 7 3 2 5 7 7 5 7 10 8 5 5 8 7 8 12 8 11 10 13 11 8 8 8 8 9 9 6 4 5 5 5 5 1 3 3 3 2 5 6 7 10 10 10 8 9 12 13 11 7 4
5 5 3 7 9 9 8 5 5 6 2 1 5 4 2 3 5 4 6 4 2 2 3 4 2 2 2 4 5 6 3 1 1 0 0 4 5 3 1 2 5 7 3 6 7 7 5 3 4 5 6 5 7 7 7 7 7 7 5 6 7 8 11 11 7 6 5 5 7 5 1 3 3 4 2 2 6 3 2 5 8 8 9 11 11 9 9 7
5 6 4 6 8 9 8 5 5 6 3 3 6 5 5 4 1 5 6 3 3 4 3 2 2 2 1 2 3 3 3 0 1 1 2 3 5 2 1 2 5 6 9 10 7 7 5 3 2 4 6 5 3 3 1 1 3 4 6 9 11 11 12 9 7 5 4 4 7 5 4 7 6 6 3 3 8 5 3 4 2 4 9 10 8 8 8 7
4 5 5 6 7 7 7 6 7 6 4 4 3 3 5 4 5 1 6 2 0 3 3 1 2 3 2 2 3 3 3 2 2 1 3 1 2 4 2 4 5 4 10 7 6 5 4 4 3 5 8 6 5 8 8 7 6 6 7 12 15 13 10 7 7 6 4 4 4 3 10 10 7 7 5 4 6 3 2 5 3 1 4 7 7 7 7 6
4 4 5 2 3 5 6 6 7 5 1 2 2 2 5 3 4 4 4 1 1 3 3 2 2 3 2 3 4 3 2 1 1 0 3 3 4 1 3 6 5 5 3 4 4 3 4 4 4 7 9 9 8 9 9 9 10 11 10 12 14 12 8 9 9 7 4 4 1 8 12 11 8 6 5 5 7 5 3 6 3 1 1 1 2 2 3 3
5 4 5 5 4 4 3 4 7 5 2 2 2 3 6 5 1 3 2 0 2 2 2 2 2 2 2 2 3 3 4 4 2 2 2 2 3 3 3 8 4 5 4 8 4 0 4 4 5 7 9 11 12 9 7 8 10 11 13 12 9 9 13 16 13 9 7 7 4 4 11 11 9 9 7 4 6 10 6 2 4 4 3 3 5 4 2 2
5 4 5 8 6 4 4 6 8 5 1 0 1 3 6 4 1 1 1 1 2 1 0 3 1 2 2 1 1 1 2 3 3 3 4 2 1 5 4 5 3 0 5 6 2 5 4 4 7 9 9 9 10 10 11 12 11 11 13 13 9 9 11 10 7 7 7 9 10 7 14 16 10 7 8 6 6 9 9 7 2 5 7 3 4 8 8 9
5 4 5 8 7 5 5 5 7 4 1 1 1 2 5 3 0 2 1 2 5 3 0 3 0 1 4 4 2 2 4 2 3 2 6 5 3 5 5 4 5 4 5 7 3 5 3 3 5 7 8 7 8 11 11 10 10 8 7 10 9 6 14 17 14 15 15 14 15 13 15 14 9 9 8 4 6 7 6 10 11 8 6 5 6 7 10 12
9 7 4 6 6 5 6 5 6 5 1 1 2 2 3 3 1 2 1 1 6 4 3 6 3 1 3 3 1 2 6 5 4 5 7 4 1 2 3 2 4 4 4 5 3 3 3 4 4 5 6 6 7 9 8 9 10 3 10 14 9 7 14 16 15 15 14 13 14 13 11 7 5 8 9 7 2 6 4 6 10 10 11 12 12 12 13 12
12 9 7 6 5 4 6 5 5 4 1 1 2 0 3 2 1 2 2 1 4 4 4 7 5 1 1 0 2 4 5 3 2 1 5 4 2 5 4 3 4 4 3 3 1 2 4 4 4 5 4 5 7 8 7 8 7 1 7 11 10 8 11 12 12 14 14 12 10 8 6 4 4 6 6 8 6 4 0 2 4 6 8 10 11 10 9 9
Wind_Direction
352 350 347 345 343 342 340 338 335 333 333 333 334 333 333 331 325 321 315 311 308 304 302 304 305 309 313 315 318 323 329 316 301 277 243 248 247 241 247 236 239 242 209 189 207 213 210 220 231 232 223 234 251 251 247 235 80 57 264 274 252 184 178 164 175 202 151 148 151 155 153 142 136 134 129 136 135 132 134 128 129 128 124 126 129 135 138 137
351 349 347 345 343 341 339 336 332 330 328 331 333 332 332 329 329 325 317 314 309 307 305 304 305 309 309 312 321 332 334 310 286 272 254 251 249 243 245 239 247 238 197 196 212 214 214 216 218 226 224 231 290 290 252 300 319 195 234 266 257 231 184 177 178 212 182 151 150 156 154 145 141 143 147 143 140 141 137 127 124 121 123 128 133 138 139 138
350 348 346 345 344 341 337 333 330 327 323 329 332 331 332 329 329 325 319 315 308 308 304 303 306 307 310 313 324 343 329 303 280 271 262 247 234 235 243 241 242 227 201 203 213 216 225 226 213 218 229 223 345 337 61 319 256 205 222 249 229 252 259 223 195 190 178 154 149 155 154 148 144 142 148 145 142 145 137 128 126 127 133 136 138 142 143 141
352 348 346 344 342 339 335 331 327 323 323 327 329 329 331 330 329 327 324 318 311 307 303 304 306 307 313 314 333 355 317 291 281 60 67 205 220 231 241 241 234 219 208 215 225 225 232 241 233 221 225 216 17 314 80 189 235 235 232 260 296 250 245 220 207 193 171 153 149 153 153 153 148 143 156 152 140 138 134 132 135 138 139 139 142 145 147 144
352 349 347 344 341 338 334 330 327 324 323 323 324 326 331 334 331 328 325 322 317 310 306 304 306 310 310 317 353 340 303 283 77 90 94 151 211 229 237 236 225 209 209 223 235 237 236 244 248 233 223 187 166 233 211 192 230 263 217 242 266 231 231 214 208 195 159 146 149 154 150 148 151 151 158 152 137 137 138 137 139 140 140 142 145 148 148 144
352 351 349 347 343 338 335 334 331 327 324 322 322 325 329 335 334 327 322 323 322 313 310 307 309 312 308 327 352 312 280 285 48 87 73 332 246 239 225 221 214 203 210 226 237 240 234 238 248 240 231 216 176 246 236 183 206 243 203 229 238 164 230 240 182 154 138 147 152 150 146 144 150 146 147 148 135 136 137 136 138 139 141 143 145 148 148 145
352 351 349 348 346 341 339 335 331 326 324 322 320 322 324 329 331 325 319 319 323 319 311 305 309 313 317 328 310 274 253 273 342 75 26 344 281 244 209 205 202 199 210 225 233 236 229 232 244 236 235 256 6 283 241 178 194 242 260 232 205 116 250 316 50 58 51 126 140 142 155 151 148 139 141 152 136 133 134 134 137 139 142 144 147 148 146 144
354 352 349 347 346 343 338 333 329 324 322 320 319 320 320 324 325 319 316 316 321 320 310 306 313 318 337 330 291 255 244 261 68 55 350 353 323 189 183 189 194 201 212 221 228 234 232 232 242 240 234 218 186 231 213 157 172 240 233 213 149 95 46 18 43 50 39 24 351 178 160 143 139 137 142 150 134 132 136 135 136 141 144 145 148 146 145 148
354 352 349 347 344 341 336 332 328 324 323 320 319 317 317 322 320 315 314 312 315 316 313 308 306 316 342 317 285 270 264 55 80 10 330 71 121 159 171 183 192 202 212 221 232 237 235 233 240 244 250 240 210 227 216 176 190 220 211 208 116 92 82 82 99 116 99 97 348 238 150 126 131 132 136 145 134 133 137 137 140 145 146 147 148 146 148 152
353 352 349 346 342 339 335 333 329 326 325 321 319 315 315 320 316 312 310 308 312 307 307 304 301 314 295 277 268 271 29 39 82 111 114 134 141 159 180 191 189 202 215 219 231 236 237 241 245 247 258 269 256 263 250 198 136 155 129 54 84 97 105 113 122 139 123 106 95 188 146 128 135 132 142 146 136 138 141 141 144 147 147 147 146 147 153 151
353 351 348 345 340 338 336 333 331 328 327 324 322 316 314 316 308 305 303 299 303 300 302 292 282 275 277 271 265 276 30 327 313 121 142 152 155 170 190 200 190 203 220 223 229 234 241 247 259 269 250 282 281 261 261 102 92 94 81 65 73 83 90 100 121 171 192 92 325 211 131 133 152 144 150 143 141 146 144 143 147 149 147 146 146 148 153 148
351 349 347 344 339 337 335 333 331 328 327 324 323 319 313 309 299 298 298 296 298 294 294 280 261 265 281 273 250 258 318 307 267 148 164 167 173 182 193 204 199 209 225 229 227 229 243 252 263 272 274 316 283 266 51 86 92 92 83 70 65 67 68 80 116 189 172 146 249 243 118 136 166 158 157 145 148 151 144 146 149 148 146 144 145 148 150 145
349 347 345 342 337 335 333 331 329 327 327 326 324 319 311 305 299 295 295 298 295 288 283 263 231 256 275 278 250 241 285 291 230 188 185 183 190 190 200 210 210 220 232 241 238 228 238 251 264 274 281 267 262 303 46 101 107 97 88 85 81 72 44 17 329 156 137 154 248 248 142 149 150 162 166 150 154 154 147 152 150 146 147 145 147 151 148 145
346 345 343 340 336 332 331 330 329 327 326 326 323 318 313 307 303 301 301 296 284 279 270 241 216 251 260 267 284 246 250 268 234 211 199 194 198 191 204 216 218 222 231 249 258 247 239 251 265 273 281 265 269 315 307 133 119 113 117 117 100 84 119 112 247 181 139 161 247 263 169 150 148 166 171 155 159 159 152 153 150 148 149 147 152 152 147 150
344 344 341 339 334 330 330 328 328 327 326 326 323 319 313 302 297 285 290 284 261 249 258 257 223 235 264 251 257 70 218 233 219 211 200 197 203 198 204 210 214 220 231 247 259 262 251 254 259 255 270 261 248 284 270 183 120 132 137 112 82 355 113 151 214 218 201 190 215 263 162 143 157 177 174 162 164 161 156 155 152 152 151 151 157 151 150 159
342 342 339 338 334 329 328 327 328 327 325 326 323 317 308 301 299 287 290 272 239 207 209 262 222 217 272 289 204 147 208 216 207 199 200 203 204 199 197 198 205 218 234 239 250 273 262 246 248 254 266 249 221 237 255 221 124 138 136 114 132 136 169 176 166 243 274 194 188 255 174 141 165 183 176 170 168 164 161 159 154 154 153 155 159 154 155 162
340 340 339 337 332 328 327 327 327 326 327 330 326 318 309 302 297 294 295 267 241 225 231 268 258 227 254 297 276 227 218 206 184 186 202 208 209 193 179 193 206 210 222 224 238 259 241 227 237 248 254 248 232 232 248 238 107 87 115 117 147 159 168 175 152 219 251 205 199 242 192 142 162 175 176 174 170 166 166 162 157 157 156 158 163 157 156 163
339 338 337 335 332 327 324 325 324 324 329 329 325 323 314 303 293 291 285 266 252 245 245 258 272 271 241 252 261 219 208 185 166 184 203 206 217 197 181 203 207 198 214 219 223 233 224 214 222 235 231 230 234 236 243 188 139 176 177 135 160 162 166 179 168 175 188 199 221 216 184 158 166 170 178 180 171 171 171 163 159 159 158 162 165 158 156 164
336 335 335 333 331 326 321 323 322 320 322 321 331 326 313 300 285 268 243 231 221 246 271 207 217 284 48 198 242 180 167 156 166 189 197 205 224 207 197 208 204 202 215 209 200 208 216 210 213 230 229 221 219 226 244 194 157 168 162 140 152 144 151 182 176 163 174 182 199 201 184 176 176 169 174 182 176 174 171 163 163 163 160 166 167 158 160 166
334 333 332 330 329 325 319 319 318 317 315 308 320 307 287 275 259 221 211 218 227 256 291 173 198 248 271 167 122 87 119 160 199 205 193 200 213 203 200 205 202 208 219 218 197 191 212 223 215 222 226 230 225 222 250 254 168 148 138 134 138 126 129 172 175 162 176 187 194 200 180 179 191 181 177 176 176 180 174 167 168 167 166 171 168 160 163 166
332 330 329 329 327 322 316 314 312 313 305 289 296 284 280 315 334 1 239 222 222 236 252 242 241 271 297 43 111 147 199 199 210 211 190 192 207 198 188 200 208 204 216 231 217 183 208 231 226 224 227 233 235 223 245 269 230 163 147 137 131 128 129 157 164 153 175 197 196 206 184 177 187 195 211 180 176 186 180 172 169 170 174 176 168 161 164 164
331 329 327 327 324 320 315 309 305 306 298 280 266 258 276 326 344 326 318 267 221 218 241 257 270 272 267 282 248 204 219 204 201 202 181 187 208 199 174 195 220 210 206 225 228 198 204 236 237 230 235 233 230 242 236 244 247 205 142 147 144 136 129 132 142 141 173 198 165 217 196 168 152 111 342 295 129 296 260 206 175 171 176 184 169 160 166 166
330 327 325 325 322 318 309 302 302 294 277 253 245 262 285 318 330 315 310 288 227 185 225 222 233 228 207 241 242 205 220 208 196 188 173 197 215 211 197 198 222 225 210 213 222 225 210 226 233 230 243 232 197 262 254 224 243 218 140 177 155 147 149 143 140 140 187 191 131 196 188 120 61 54 266 193 92 317 292 315 279 187 177 189 174 161 172 170
330 324 323 323 319 314 306 304 296 279 259 245 247 265 291 315 320 326 323 286 248 165 206 190 228 231 195 225 214 205 226 211 199 180 165 203 218 210 223 215 220 226 223 216 219 238 245 230 219 220 239 233 180 236 256 232 244 213 190 220 163 149 146 124 131 136 162 4 128 141 107 109 251 261 222 147 112 227 276 337 299 220 178 190 180 167 178 172
330 323 320 320 315 311 310 302 281 267 250 244 248 249 269 309 325 332 330 286 240 154 167 163 236 237 160 217 193 205 236 214 206 178 160 208 223 204 225 235 233 228 222 222 222 236 253 252 226 212 227 225 191 220 239 242 254 249 252 238 151 145 130 119 125 126 124 318 169 159 114 150 211 244 219 158 151 214 248 264 271 231 181 191 186 174 183 172
330 322 317 316 311 310 313 297 284 284 259 243 253 251 268 329 342 333 313 276 191 140 159 164 209 151 144 205 177 207 245 220 182 152 161 215 230 229 236 222 219 237 234 223 228 236 243 253 241 218 236 222 201 212 240 249 247 257 280 103 130 139 126 130 130 124 137 173 194 181 156 134 177 235 221 175 175 197 209 205 252 240 191 192 190 177 185 175
329 319 313 310 305 304 300 295 314 315 295 309 9 337 334 0 339 324 295 260 156 154 171 155 140 133 197 192 183 204 221 126 136 145 181 212 220 241 246 226 206 228 250 235 227 228 233 252 234 203 247 242 202 199 230 241 238 244 138 116 137 137 127 136 136 134 150 126 166 170 135 90 185 225 199 167 182 194 206 204 231 239 205 193 194 182 184 181
327 316 307 304 297 285 270 286 307 305 301 343 358 328 338 348 312 296 277 294 71 158 181 116 93 182 224 185 209 227 87 115 181 154 199 206 207 231 228 242 245 219 229 233 223 206 216 243 232 201 229 256 226 218 225 239 241 232 200 160 147 134 134 143 138 140 154 138 173 172 163 167 176 203 169 156 192 203 208 206 211 220 208 193 191 189 187 182
326 312 300 298 290 280 271 273 283 285 296 327 338 328 330 315 296 273 268 307 80 187 145 101 130 204 212 186 218 244 134 202 215 148 195 203 207 239 248 270 282 242 225 226 230 229 221 234 220 208 233 237 245 251 245 248 244 210 205 218 218 141 132 137 143 143 144 161 207 180 181 202 170 176 164 166 204 208 206 210 207 207 205 197 188 191 190 181
324 308 297 292 277 282 281 261 262 274 285 308 326 325 307 286 278 268 269 303 141 157 148 157 161 181 192 185 204 230 207 199 192 166 191 201 208 229 261 275 277 259 237 229 241 263 316 346 40 317 263 253 243 246 252 254 246 219 222 233 237 181 133 123 144 148 148 213 229 192 183 194 219 173 175 192 202 196 192 198 205 201 204 202 188 191 192 180
319 303 290 278 258 266 274 258 280 301 290 305 321 309 284 270 275 281 298 49 145 165 168 171 156 168 190 198 190 200 208 180 148 198 194 201 212 208 235 239 234 248 231 215 246 253 243 238 57 316 276 284 262 241 242 251 240 221 220 230 252 219 154 136 147 173 222 240 214 192 182 193 227 177 182 204 198 188 189 190 195 194 199 201 188 190 192 180
315 298 281 270 260 256 253 269 319 333 317 312 311 287 274 288 266 263 178 145 242 185 167 155 151 184 193 208 211 189 200 176 167 213 205 197 205 189 213 224 196 224 225 198 221 238 232 215 172 189 227 245 265 254 218 234 233 221 211 215 240 234 180 185 194 197 262 250 166 169 174 193 244 205 191 202 191 186 189 186 189 191 194 198 189 189 190 182
310 292 276 268 263 257 256 272 300 312 310 306 295 269 264 283 281 286 308 146 90 24 298 154 161 205 192 196 228 195 188 166 172 216 214 202 213 188 199 226 215 215 233 224 214 213 235 230 188 192 208 205 228 247 213 211 208 203 216 223 233 227 202 230 232 219 256 254 142 155 167 194 280 325 212 196 182 187 188 181 188 192 191 195 193 191 190 182
305 286 274 268 262 257 259 267 271 284 301 296 277 267 269 275 325 338 338 61 89 178 277 218 175 235 234 211 204 181 174 173 188 222 214 195 221 201 190 217 229 242 260 246 245 225 226 233 197 195 192 179 201 232 247 250 209 197 211 220 236 245 231 234 246 256 265 270 125 149 161 230 283 6 324 172 166 181 185 177 184 193 191 191 195 197 192 184
298 279 269 264 261 259 262 265 259 264 283 283 271 286 286 286 0 353 356 49 3 204 125 47 252 226 242 210 189 188 193 219 201 209 216 209 228 224 207 202 199 240 261 235 268 248 234 249 204 189 184 173 189 216 240 266 265 208 208 214 228 245 247 242 235 255 266 234 200 165 162 245 241 352 10 131 162 179 179 176 181 189 190 187 196 206 200 185
288 267 256 252 253 257 255 251 249 248 258 271 276 284 280 284 351 348 355 0 329 344 105 165 233 230 218 158 156 211 200 243 219 188 198 222 218 207 240 233 184 226 256 251 312 280 245 260 180 166 184 184 186 205 215 235 258 234 211 213 222 241 253 251 224 241 266 263 209 155 145 159 170 313 279 156 177 176 170 174 178 180 185 188 194 207 208 190
266 223 235 247 244 244 232 219 230 235 248 269 282 293 299 324 357 338 332 326 325 339 307 261 167 278 269 152 129 215 187 204 228 203 199 202 208 198 201 217 273 301 303 320 313 296 284 286 140 148 195 185 166 201 212 217 239 250 237 207 204 228 248 256 237 236 251 264 253 155 156 159 160 196 188 174 177 173 169 172 175 173 182 190 193 204 212 192
272 235 244 250 234 217 205 211 231 237 253 266 266 275 280 316 14 352 337 305 296 293 299 314 32 280 282 277 241 199 178 173 177 191 207 172 101 312 234 174 153 286 316 329 289 281 285 277 171 164 211 179 148 204 223 212 227 244 268 301 266 229 229 227 223 245 246 247 265 188 170 176 182 165 176 185 181 177 174 170 174 176 179 183 188 203 213 181
274 255 248 231 202 192 201 207 230 244 256 262 267 268 265 330 46 0 325 288 290 323 330 312 260 207 274 302 243 184 156 184 175 167 212 136 101 257 269 257 164 207 285 267 253 279 275 266 234 178 227 198 163 204 225 204 215 238 260 277 276 265 251 222 194 205 240 248 253 233 188 164 183 167 177 180 169 176 182 177 181 183 180 177 180 199 202 158
246 258 238 184 173 180 191 204 234 249 249 260 281 284 299 338 57 54 330 301 300 337 324 314 320 143 273 270 242 202 114 277 258 169 184 175 139 193 260 280 208 191 231 238 254 281 268 248 223 195 232 220 185 196 225 213 196 214 241 243 237 253 279 274 229 209 228 251 259 262 239 135 140 179 169 168 165 176 183 183 189 189 184 180 178 194 188 171
235 258 220 161 168 174 190 222 238 245 248 258 275 272 337 332 327 25 281 269 291 251 257 314 329 316 269 225 240 286 116 186 248 115 144 188 152 111 1 346 306 313 1 242 243 262 265 258 265 258 234 223 202 186 213 241 222 195 215 230 232 247 257 255 248 238 243 248 246 251 232 136 167 220 154 168 184 187 183 183 186 187 185 182 180 188 183 176
251 258 177 155 173 185 213 240 239 254 257 254 286 299 61 323 300 314 261 232 317 322 212 316 329 323 322 351 2 310 217 172 245 115 140 177 50 40 49 351 314 311 311 273 266 340 335 300 290 287 271 285 286 203 188 236 253 227 212 218 221 237 247 246 243 237 239 241 240 246 226 134 149 157 149 170 193 191 181 182 188 183 180 182 182 180 172 173
237 251 180 168 188 207 236 252 246 258 261 43 312 282 100 251 257 326 336 335 10 337 303 337 40 8 333 319 286 294 324 59 34 117 153 148 70 44 46 314 297 272 268 304 2 1 336 282 270 286 286 306 305 257 185 203 242 238 223 221 221 223 233 251 274 273 251 246 253 258 242 114 106 65 95 161 169 180 180 179 185 181 170 177 176 169 171 186
252 273 229 183 200 223 241 247 252 265 268 337 278 241 139 297 301 351 353 359 22 339 322 334 21 60 326 302 316 327 346 80 126 318 98 117 93 53 327 300 291 275 297 28 10 338 315 265 241 277 280 265 274 255 183 180 230 248 245 236 234 229 234 248 266 273 277 300 309 304 172 130 94 53 350 106 101 87 223 189 183 176 174 177 167 159 172 183
285 282 251 181 196 228 241 249 267 280 280 252 262 251 205 207 275 314 311 329 346 335 346 339 308 291 281 301 311 319 318 317 125 296 297 100 107 124 283 295 287 320 21 30 345 306 317 322 285 285 272 241 255 301 262 215 274 281 263 252 249 234 226 244 264 261 263 286 300 313 125 142 135 138 172 67 76 64 333 293 265 175 173 177 168 162 170 181
287 272 257 191 180 216 236 254 263 267 272 254 254 270 245 183 120 219 272 281 286 298 317 340 279 297 317 287 259 240 225 197 128 273 250 204 124 130 124 278 275 13 28 8 312 291 297 305 293 275 274 287 327 322 310 307 298 277 241 240 258 250 219 226 256 255 260 249 249 77 101 121 126 135 143 93 80 77 279 260 274 2 174 178 175 169 157 165
263 277 286 254 194 219 224 234 250 254 234 245 252 257 263 269 109 162 232 289 283 266 290 310 305 310 328 309 294 292 266 221 111 278 238 252 295 67 123 264 265 89 67 268 251 278 287 279 264 257 265 279 275 274 296 303 292 292 270 239 255 269 246 239 246 239 260 278 198 88 97 119 126 116 128 131 122 127 245 269 277 322 291 121 116 108 97 118
266 282 311 316 285 259 256 249 256 256 147 172 233 232 261 278 193 175 177 237 257 235 241 287 299 300 322 347 328 345 357 343 334 285 258 214 285 307 211 235 220 130 208 238 201 238 307 298 292 280 268 263 252 244 263 266 256 269 272 261 269 284 264 252 249 243 248 269 276 87 90 98 108 106 108 111 115 130 151 286 326 305 315 54 103 122 129 225
293 304 327 315 286 266 302 301 278 267 166 91 249 225 259 271 232 272 316 264 285 95 326 303 323 315 328 67 11 24 51 328 332 341 324 329 325 312 279 249 256 217 280 286 75 63 359 307 302 303 291 282 277 264 251 246 242 245 260 276 292 309 305 296 304 329 343 341 335 18 69 68 63 78 91 94 96 114 127 115 104 280 295 303 165 159 176 207
318 330 338 311 296 277 272 275 274 271 104 55 289 255 278 283 49 332 290 291 333 44 146 287 195 336 353 53 65 61 106 95 60 40 294 307 10 329 317 310 300 298 305 309 12 61 20 296 301 305 291 280 276 271 260 248 251 261 301 307 286 318 6 11 11 11 14 7 359 23 63 62 30 18 28 52 101 108 125 135 149 188 227 235 223 197 192 197
334 321 307 284 297 305 274 248 252 256 179 182 251 249 276 282 9 345 184 289 324 340 348 342 23 71 352 35 62 86 108 118 137 189 250 278 90 252 255 264 286 290 301 304 327 7 323 302 307 291 275 264 251 257 268 261 250 264 29 11 352 27 35 22 17 18 13 1 2 23 52 50 2 3 351 324 56 106 141 159 160 178 189 195 207 206 194 184
348 327 316 289 279 293 284 265 255 254 241 333 320 222 244 261 21 326 283 228 286 293 339 345 342 298 267 82 66 61 61 23 355 285 291 301 261 254 252 259 285 296 315 325 329 296 291 292 299 293 287 285 264 246 256 265 254 257 31 16 5 29 46 38 24 16 9 3 9 25 44 34 357 8 348 318 340 36 35 195 170 187 198 202 210 207 182 156
Height
794 793 792 791 790 789 788 787 786 785 784 783 782 782 781 780 779 778 777 776 775 773 773 772 771 770 769 769 768 767 766 765 764 764 760 753 751 752 752 753 753 755 756 757 757 757 756 755 754 749 749 751 753 759 765 765 765 771 781 791 793 791 788 783 783 778 772 772 770 767 765 770 774 768 760 758 762 764 764 763 761 762 764 768 772 775 778 782
794 793 792 791 790 788 787 786 785 784 784 783 782 781 780 779 778 777 776 775 774 773 772 771 771 770 769 768 767 767 766 764 763 759 751 748 750 751 751 752 753 754 755 756 756 754 754 753 750 748 750 756 759 762 766 767 769 777 785 790 789 784 778 771 771 770 768 769 768 766 765 767 772 768 762 769 774 768 770 769 765 771 772 772 774 776 780 782
793 792 791 790 789 788 787 786 785 784 783 783 782 781 780 779 778 776 776 774 773 772 771 771 770 770 769 768 767 767 766 764 760 752 744 745 749 749 750 752 752 753 754 754 754 752 751 748 746 748 752 759 766 766 769 773 773 776 783 790 783 776 773 766 764 766 765 763 767 768 764 766 767 764 765 772 776 772 773 773 773 779 778 777 776 777 781 782
793 792 791 790 789 788 787 786 785 784 783 782 781 780 780 778 777 776 775 774 773 772 771 770 770 769 769 768 768 767 766 765 756 744 742 744 746 748 750 751 750 752 754 753 753 751 748 745 743 745 752 766 771 767 771 775 774 774 780 785 776 769 773 767 762 765 762 760 767 767 766 769 764 763 769 770 777 779 774 771 773 777 777 777 778 778 780 783
793 792 790 789 788 787 786 785 784 783 782 781 780 780 779 778 777 776 775 774 772 771 770 770 770 769 769 768 768 767 768 767 751 741 744 745 746 748 748 749 750 752 753 754 753 749 747 745 743 745 754 771 777 772 773 769 768 775 776 775 770 768 774 767 761 762 758 760 767 767 768 769 763 766 769 768 778 779 769 766 768 770 772 775 777 778 780 783
793 791 790 789 787 787 786 785 784 783 782 780 780 779 778 778 777 776 774 773 772 771 770 770 769 769 768 768 769 769 771 764 745 741 745 744 746 746 747 749 750 752 753 754 751 748 747 746 748 752 756 766 774 773 772 766 766 778 777 770 768 769 773 766 761 762 757 761 768 768 765 763 767 771 767 767 772 767 760 761 765 768 769 772 775 777 781 783
793 791 790 789 787 787 785 784 783 782 781 780 779 778 778 777 776 776 774 773 772 771 770 769 769 769 768 768 769 769 769 756 740 742 744 743 745 744 746 748 749 752 753 753 750 747 747 748 751 752 756 763 772 774 770 766 767 778 781 771 767 770 772 768 767 767 764 768 767 764 766 766 772 773 768 768 765 759 758 759 763 767 768 772 775 777 781 784
793 792 790 789 787 786 785 784 783 782 781 780 779 778 777 776 776 775 773 773 771 771 770 769 770 769 769 769 768 766 762 749 740 743 743 743 744 743 746 748 749 752 751 751 748 745 745 749 750 748 756 764 769 772 766 768 774 777 779 770 766 773 776 774 776 775 774 777 774 769 770 769 767 767 769 769 761 758 759 760 764 768 770 773 776 778 781 784
793 792 790 789 787 786 785 784 783 782 781 779 778 777 776 776 775 774 773 772 771 771 770 769 770 769 770 769 767 765 754 742 741 743 742 743 743 744 747 747 750 751 750 750 745 744 745 747 747 743 753 755 756 762 759 769 777 772 772 770 771 780 780 779 780 778 777 778 781 781 776 770 763 764 773 767 759 759 758 763 766 769 773 775 777 779 781 783
793 791 790 789 787 786 784 783 783 781 780 779 778 776 775 775 774 773 772 771 771 770 769 770 769 769 771 768 768 765 748 739 742 742 743 743 743 745 747 747 749 750 749 747 744 742 741 743 739 735 743 748 749 754 753 760 766 766 772 774 776 783 781 779 781 779 778 777 781 784 781 775 764 769 780 767 757 759 761 767 768 770 775 775 777 779 780 782
793 791 790 788 787 786 784 783 782 781 780 778 777 776 774 773 773 772 771 771 770 770 770 769 769 769 770 768 769 761 743 740 743 742 744 744 744 746 746 747 748 749 747 744 743 740 738 737 732 734 744 748 749 750 748 748 757 770 776 777 780 783 783 782 783 782 780 781 780 778 781 780 771 775 779 766 758 760 764 770 770 772 775 775 778 779 780 782
793 791 789 788 787 785 784 783 781 780 779 777 777 775 774 773 772 771 771 770 769 770 769 768 769 769 769 767 763 753 742 742 742 742 744 743 744 745 745 747 746 746 745 741 741 739 738 735 732 741 746 746 751 753 751 747 757 772 777 784 788 786 788 786 784 783 781 784 778 775 788 789 782 780 772 762 760 761 766 771 771 773 775 776 778 779 781 782
792 791 789 788 786 784 784 782 781 780 778 777 776 774 773 772 771 771 770 770 769 769 768 769 769 769 772 765 750 744 743 742 742 742 743 743 744 744 744 745 744 745 744 740 738 736 738 736 735 742 739 744 754 748 747 749 756 770 778 789 795 795 797 791 786 783 782 784 776 779 800 801 788 779 768 761 762 764 770 773 772 774 775 777 779 780 782 783
792 791 789 787 786 784 783 781 781 779 777 776 775 774 773 772 772 771 770 770 769 769 768 768 769 770 771 760 743 742 744 742 743 742 742 742 741 742 743 743 743 744 742 740 738 736 737 735 736 741 739 742 747 742 746 754 761 772 783 792 796 804 805 793 789 787 787 786 776 783 802 801 788 779 769 763 762 766 772 774 773 775 777 779 780 781 783 784
792 790 789 787 785 784 782 781 780 778 777 776 774 774 772 772 772 770 770 769 768 769 768 768 769 768 767 755 741 742 743 741 742 740 740 741 740 740 741 741 742 741 741 740 738 737 736 736 741 748 746 738 743 756 758 758 765 772 787 803 800 804 807 796 791 790 792 787 778 789 800 798 790 780 770 764 764 767 773 775 774 776 778 780 781 781 785 785
792 790 788 787 785 783 782 781 780 778 777 775 775 774 773 772 771 771 770 768 769 768 768 769 766 766 766 753 741 742 743 740 739 739 740 739 739 739 739 740 741 741 741 739 739 738 736 739 744 746 748 745 750 765 763 761 776 775 782 806 806 803 809 804 796 791 790 788 785 792 798 797 792 780 770 766 766 769 773 775 775 777 779 779 781 782 784 785
791 790 788 786 785 783 782 781 779 778 776 776 775 773 773 772 771 771 770 769 770 768 768 767 761 764 761 747 743 744 740 737 738 739 739 738 737 737 738 740 740 740 740 739 740 740 739 743 748 748 749 751 751 760 769 778 793 788 783 800 804 801 807 807 802 793 788 791 792 791 793 794 789 779 772 768 767 771 775 776 776 777 779 779 780 781 784 786
791 789 787 786 784 783 782 780 779 777 776 776 775 774 773 772 771 771 770 770 769 769 769 765 763 768 761 746 744 742 735 735 737 738 738 738 737 736 738 739 738 739 742 745 744 743 745 745 749 755 754 754 754 760 776 786 791 789 785 795 800 800 805 805 801 793 789 795 798 796 796 794 787 780 776 771 768 773 775 775 777 777 779 780 780 782 785 786
790 789 787 786 784 783 781 780 779 777 776 776 775 774 773 772 772 770 769 770 769 769 768 762 762 766 758 744 738 734 732 735 737 738 738 737 737 737 737 737 737 741 749 753 750 745 747 750 754 763 761 757 755 756 764 767 769 773 775 785 793 797 803 799 793 788 787 798 802 798 799 796 788 782 779 774 770 773 775 775 777 778 779 780 780 782 785 786
790 788 787 785 784 783 781 780 779 777 776 776 775 775 773 771 770 769 767 766 763 759 755 752 751 750 746 739 735 735 736 738 738 737 737 737 737 737 737 737 740 745 751 754 751 742 744 758 763 762 759 752 747 747 747 746 750 760 769 779 784 790 798 793 790 787 783 796 802 795 797 798 793 787 780 776 774 775 776 778 781 780 780 781 781 783 785 785
789 788 786 784 784 782 781 780 779 778 776 776 776 776 771 764 765 766 762 759 753 747 747 744 741 742 740 735 735 737 739 741 739 735 736 736 735 741 742 741 748 754 751 747 744 738 745 762 760 750 747 741 738 741 743 745 748 754 764 775 780 787 794 790 788 788 784 794 801 796 799 801 798 797 790 781 782 783 778 779 782 781 782 780 780 783 784 784
788 787 785 784 783 782 781 780 778 778 776 776 776 773 765 759 759 758 757 758 750 741 743 742 740 742 738 735 734 735 740 745 743 736 735 735 736 744 744 744 753 754 746 744 745 747 755 761 751 739 735 733 736 740 743 748 749 750 758 769 778 785 791 791 788 790 791 799 806 801 799 800 799 801 799 793 794 794 786 781 781 780 783 782 780 783 784 784
788 786 785 784 782 781 781 779 778 777 775 774 772 768 762 758 757 754 755 760 753 741 741 743 744 743 740 738 734 735 742 744 745 739 732 737 739 740 743 747 751 749 745 747 750 756 761 754 740 733 731 732 741 745 742 746 746 748 758 766 773 778 786 794 794 794 796 799 805 803 798 801 802 802 801 798 797 798 793 786 782 780 781 781 779 781 783 785
787 785 785 783 782 781 779 778 777 774 772 771 769 765 761 758 757 756 756 759 754 743 737 738 738 738 738 736 732 737 742 737 739 737 731 737 739 737 741 743 746 749 745 742 745 751 751 737 726 730 731 732 745 751 747 749 749 747 750 755 765 771 776 786 791 794 798 799 798 801 809 812 807 807 806 799 797 799 795 790 788 782 779 780 779 780 782 783
786 785 783 782 782 780 779 778 774 770 769 767 765 762 760 759 757 757 761 765 760 745 737 738 737 734 731 732 733 734 737 734 731 730 728 733 736 738 740 737 742 750 745 739 743 747 743 726 719 729 733 732 746 753 748 749 753 751 742 739 752 764 770 780 788 796 811 817 802 800 822 827 811 809 808 802 801 801 797 796 795 787 781 781 782 782 782 781
785 784 782 782 781 779 780 776 770 768 766 762 759 759 759 759 759 758 764 772 767 752 746 744 742 739 733 734 733 731 742 739 723 722 728 730 729 732 741 739 738 745 740 734 739 741 736 724 719 729 734 734 744 751 745 744 757 759 742 734 746 758 768 779 786 797 816 824 807 798 820 831 820 813 806 803 804 802 800 801 798 791 784 783 783 782 782 782
785 783 782 782 780 780 779 773 769 768 764 759 758 759 759 759 760 759 769 783 774 753 748 744 741 741 736 733 729 737 755 745 725 725 727 729 728 727 741 743 739 742 731 731 746 742 733 729 727 731 736 738 743 750 744 740 755 756 736 734 747 756 768 776 783 796 803 808 806 800 809 826 828 815 802 802 807 806 805 803 802 796 787 783 783 781 781 781
783 782 781 780 779 780 778 774 772 768 764 761 759 761 760 759 761 761 779 799 775 745 743 740 736 735 732 731 729 736 746 740 740 740 723 725 730 729 742 742 737 738 726 736 756 741 727 733 732 731 740 745 743 742 735 734 746 741 727 733 742 751 765 771 781 793 793 802 818 811 807 826 831 812 800 805 810 811 808 804 802 797 788 783 782 781 779 779
782 781 780 779 779 778 776 776 774 769 766 763 762 763 760 760 761 764 789 799 765 740 741 738 737 737 733 735 736 734 735 736 743 738 722 727 729 728 740 737 732 735 727 732 745 735 724 724 724 730 742 746 740 733 728 732 738 728 724 732 736 746 760 767 779 790 796 810 819 810 806 823 830 815 809 814 813 810 805 800 797 791 786 782 780 781 779 778
781 779 779 778 778 777 776 774 770 767 766 764 764 762 760 761 765 782 802 787 755 743 740 738 741 741 738 744 745 739 737 738 736 731 729 732 729 728 733 729 729 736 731 728 733 731 723 717 718 729 737 736 733 731 727 727 726 722 729 738 740 746 757 770 776 782 804 817 804 792 795 809 823 816 808 808 800 795 797 797 794 788 785 782 778 778 777 777
779 778 778 777 777 776 775 771 767 765 765 765 765 760 761 765 775 799 798 762 747 746 739 741 743 738 741 748 748 743 740 740 736 737 741 738 736 738 738 737 737 740 741 740 739 734 730 730 731 732 731 730 733 733 728 722 721 728 738 747 756 757 760 779 788 789 810 814 789 778 783 799 815 807 795 790 783 781 788 791 790 788 785 780 777 776 774 775
777 777 776 775 775 775 773 769 765 766 767 766 764 760 768 782 790 795 774 747 753 753 738 742 742 738 743 744 743 741 740 742 739 739 742 742 744 744 745 746 743 752 760 754 747 743 737 732 730 733 731 730 740 743 738 731 727 734 743 755 772 777 780 797 806 806 810 795 775 771 782 799 803 788 780 780 777 777 779 782 784 783 782 778 775 774 773 773
776 775 774 774 774 772 770 768 766 768 766 764 765 761 774 799 795 772 751 747 756 747 734 737 737 736 741 744 745 739 738 743 740 739 739 739 744 742 741 737 732 748 761 751 748 752 748 734 726 737 737 729 739 750 751 744 736 744 753 763 777 784 799 814 809 806 804 789 777 770 779 801 797 777 770 768 770 772 770 775 780 777 777 777 773 771 771 771
774 773 773 772 771 769 768 767 767 768 766 764 767 768 782 798 780 753 747 747 745 739 736 736 736 738 739 741 743 737 742 748 739 740 741 739 747 745 741 738 731 737 745 747 748 749 757 751 734 738 738 730 737 742 741 737 738 745 744 752 767 769 785 804 802 804 802 796 793 785 789 807 804 783 766 758 761 763 765 770 775 775 773 773 772 770 770 771
773 772 772 770 769 767 765 766 766 767 767 765 768 779 791 787 765 752 750 744 739 738 738 737 739 747 744 740 738 732 740 748 738 739 745 744 749 746 740 738 735 736 742 750 750 740 749 748 724 721 724 724 736 734 727 735 745 739 730 746 761 752 757 774 782 787 790 795 802 802 804 799 788 778 763 759 763 760 765 769 771 775 773 772 775 772 770 770
772 771 771 768 766 764 763 765 765 765 766 767 776 787 783 766 756 754 748 742 742 739 740 744 744 749 748 743 743 737 737 742 737 740 746 746 745 743 740 735 731 735 738 745 750 745 752 743 715 717 723 719 729 730 724 739 747 738 737 748 745 731 738 761 774 772 777 794 793 792 803 793 784 786 769 764 770 764 766 771 771 775 774 774 777 774 771 771
771 770 768 765 762 762 762 763 763 764 764 767 780 783 766 750 748 748 743 742 742 736 743 753 749 749 750 746 747 744 740 742 740 743 749 748 746 742 740 736 732 734 732 737 747 744 752 751 722 721 734 720 716 725 725 726 733 740 745 737 727 729 734 750 773 780 787 801 786 778 796 796 795 800 780 769 775 771 768 771 771 774 776 776 776 774 772 770
770 768 765 760 759 759 760 762 762 762 763 769 778 774 758 749 746 743 741 741 740 736 745 755 751 748 751 752 750 742 740 746 746 747 749 749 751 744 738 739 738 736 730 735 746 737 742 757 736 719 730 721 713 730 739 728 723 732 734 723 728 751 754 751 771 788 795 801 792 782 790 792 791 791 782 777 777 774 771 770 772 775 775 777 776 775 773 771
769 769 764 756 756 757 759 761 760 760 766 775 780 768 751 747 744 740 740 740 740 742 748 751 747 747 749 749 748 741 741 747 746 748 751 752 756 748 738 739 741 739 733 734 745 739 737 757 752 726 720 723 724 738 750 743 730 727 728 726 730 742 747 747 756 771 782 792 795 788 789 796 790 776 773 776 773 772 773 772 772 773 773 775 775 775 773 773
767 770 762 751 753 758 757 759 759 763 769 772 770 759 747 745 743 739 738 738 740 745 750 748 743 748 750 745 744 741 742 748 745 747 752 750 755 752 739 737 740 739 735 733 741 741 736 748 755 738 723 729 739 740 742 742 738 739 743 743 741 735 735 742 744 745 757 778 788 788 796 800 781 765 767 769 767 768 768 769 770 768 768 771 773 774 773 774
766 771 761 747 752 756 755 761 763 764 766 764 760 753 749 748 744 740 738 737 738 740 743 745 744 747 748 745 745 740 741 749 746 747 753 748 750 754 743 738 740 739 739 742 742 742 741 744 753 750 738 736 736 727 724 727 726 734 742 742 742 740 742 759 763 745 742 761 770 777 797 798 771 761 766 762 760 762 761 763 765 764 765 768 769 772 772 774
769 772 758 747 753 753 756 764 763 759 759 759 755 749 750 752 747 743 739 735 737 737 737 742 745 747 746 745 746 742 742 749 748 750 756 751 750 754 746 740 741 740 743 747 741 735 738 745 755 755 743 734 726 713 715 721 716 720 728 729 733 736 743 761 770 754 745 752 751 752 779 789 767 756 760 759 759 759 758 761 761 761 763 765 767 770 771 773
769 766 753 748 752 750 758 769 764 758 755 751 749 746 748 751 748 745 742 740 743 744 743 744 746 750 750 746 746 745 745 751 752 751 753 753 751 750 746 743 743 742 744 749 747 742 744 751 760 761 746 734 724 711 709 715 719 725 725 721 726 733 737 742 744 743 747 752 748 752 778 788 769 757 759 759 758 757 757 759 760 761 762 763 765 767 768 770
763 758 749 748 750 750 761 770 767 762 756 751 752 750 748 750 748 748 750 748 747 748 750 750 747 751 752 747 747 748 748 756 759 751 750 755 754 749 745 744 745 743 744 752 755 753 755 757 763 773 771 760 748 736 729 727 728 731 728 722 724 727 731 734 733 738 751 752 748 763 791 794 772 766 769 763 762 767 765 762 760 761 762 762 764 766 767 768
764 761 751 745 747 750 757 759 759 761 758 756 757 754 752 753 751 751 752 750 748 749 753 754 749 749 749 749 752 751 749 756 761 756 752 754 754 751 747 746 746 745 747 752 752 752 759 761 764 780 788 782 778 771 761 751 742 736 732 730 729 727 730 739 742 751 762 758 750 764 787 787 771 770 775 768 769 778 778 774 769 764 762 762 763 766 768 768
769 770 759 747 745 749 752 748 749 756 758 758 761 757 755 756 753 751 751 752 750 748 751 752 749 750 753 753 757 757 752 752 758 760 758 757 755 752 749 747 746 747 750 753 750 751 760 763 763 774 779 775 778 772 757 751 750 746 740 736 732 726 725 734 747 755 756 754 758 763 771 780 778 774 774 772 774 779 780 779 778 773 768 765 765 766 768 769
769 770 761 755 753 752 751 748 746 750 753 758 764 761 757 757 757 755 753 753 752 750 752 752 751 756 760 758 760 762 756 753 757 761 761 760 756 750 749 749 747 749 753 752 749 752 764 768 762 765 767 763 763 759 748 748 753 750 742 737 733 728 728 737 748 748 743 753 770 766 761 776 783 776 774 776 775 779 780 776 777 779 775 772 772 773 773 773
766 766 756 755 761 760 757 753 749 747 750 756 760 761 760 758 759 760 757 754 751 750 756 759 756 757 758 759 764 767 766 766 767 765 763 763 761 758 755 751 747 750 752 749 746 752 766 772 763 760 762 755 750 749 748 750 753 749 744 740 737 736 737 739 739 734 736 752 762 755 756 771 776 773 774 773 771 779 783 777 775 778 778 780 784 784 784 783
764 765 757 754 759 760 757 754 750 749 753 758 760 761 762 761 761 760 757 757 757 753 757 765 763 757 755 756 763 770 774 778 777 773 768 766 767 767 764 759 752 748 749 750 749 754 768 774 765 763 765 758 751 749 746 747 749 747 744 741 739 741 741 739 739 737 742 751 750 749 763 775 774 772 773 770 769 773 777 778 779 781 781 782 785 787 787 788
768 770 768 764 761 757 755 754 753 754 757 762 765 764 760 761 764 761 757 761 767 761 758 763 763 758 757 757 762 769 771 773 778 778 772 771 773 774 774 772 763 755 755 757 755 758 770 774 767 765 771 768 759 752 747 746 749 750 750 745 741 746 752 754 755 754 758 764 758 757 775 786 780 775 773 771 770 771 773 777 783 787 788 787 786 787 787 788
771 769 769 772 770 763 758 755 754 758 763 765 766 765 763 763 764 763 761 759 763 764 761 761 761 759 759 761 764 766 763 764 770 771 766 767 770 771 772 771 765 763 763 762 761 763 770 773 768 769 779 775 760 756 755 749 748 757 763 759 754 758 765 768 768 768 771 774 771 773 787 793 784 779 779 776 771 772 774 774 777 782 785 786 786 784 783 786
774 770 766 770 774 767 761 758 756 761 766 765 764 764 765 764 760 764 768 763 758 759 760 760 761 762 764 767 766 763 760 759 761 760 758 758 758 758 759 759 758 762 765 766 768 768 770 775 774 775 787 781 761 757 758 755 764 777 775 767 764 765 769 772 775 776 775 776 782 789 793 790 781 779 784 783 777 776 774 771 772 774 774 774 773 771 772 777